Temp
12 11 10 10 10 11 11 11 12 12 11 11 11 11 11 12 13 14 12 12 13 13 13 14 15 14 14 12 12 10 8 8 10 10 11 11 11 10 9 9 8 8 7 8 7
13 13 13 13 13 11 12 12 12 12 11 11 11 12 12 12 12 12 13 13 13 13 14 13 12 11 11 13 11 9 8 10 10 11 11 11 10 9 9 7 7 6 7 6 6
13 13 13 13 13 13 12 12 12 12 11 12 11 12 12 12 12 13 12 13 13 13 14 13 12 12 12 12 12 10 10 11 12 11 11 11 9 8 7 6 6 5 5 6 5
13 13 13 13 13 13 13 12 12 12 12 11 12 12 12 13 15 13 12 13 13 14 14 13 11 12 11 12 12 12 12 12 12 12 11 10 8 6 6 7 6 5 5 5 4
13 13 13 13 13 13 13 13 12 12 12 12 12 12 12 13 13 13 13 13 13 14 12 11 10 11 11 11 12 11 12 12 12 11 11 9 8 8 7 6 5 6 5 4 4
13 13 13 13 13 13 13 13 13 12 12 12 12 12 12 13 13 13 13 13 13 13 12 12 11 11 11 11 11 12 11 11 11 11 10 9 7 8 7 6 5 5 4 4 3
13 13 13 13 13 14 13 13 13 13 12 12 12 11 12 13 13 13 13 13 13 13 12 13 12 12 11 11 11 12 11 10 10 10 9 7 6 6 7 5 5 4 4 3 3
13 13 13 13 13 14 14 14 13 13 13 13 12 12 12 13 13 13 13 13 13 13 13 13 13 12 11 10 9 9 7 8 10 10 9 10 8 6 6 5 4 4 3 3 2
12 13 13 13 13 14 14 14 13 13 13 13 12 12 12 13 12 12 12 11 12 12 13 13 12 9 9 8 8 6 8 8 8 10 10 8 7 6 6 5 4 3 3 2 1
13 12 13 13 13 13 14 14 13 12 13 12 12 12 12 12 11 11 11 11 11 11 12 11 8 8 6 6 8 9 7 7 7 9 9 7 6 6 7 4 1 2 2 1 0
12 12 12 12 13 13 14 14 12 12 12 14 13 13 12 11 11 11 10 10 11 11 11 9 10 7 8 7 8 8 7 6 6 8 8 6 5 7 6 3 2 2 1 0 -0
12 12 12 12 12 12 12 9 7 7 10 12 12 12 11 11 11 10 10 11 12 11 10 10 10 9 8 8 8 7 7 7 7 8 8 6 5 3 5 3 1 1 1 -0 -0
12 12 11 11 12 11 10 8 8 8 8 11 12 12 11 11 10 9 9 9 11 11 10 10 10 9 9 8 7 7 7 6 7 6 7 6 4 1 3 3 4 3 2 0 -1
12 11 11 10 10 10 8 8 8 8 10 11 11 10 11 10 10 10 9 9 10 10 9 10 9 9 9 8 7 7 7 7 6 6 4 6 3 1 2 2 4 2 1 -0 -1
12 11 10 9 10 9 9 8 7 7 13 11 10 10 10 9 8 9 8 9 9 9 9 10 9 8 9 9 7 8 6 6 7 5 5 5 3 2 1 2 2 1 0 -1 -1
12 11 9 8 9 8 8 7 7 11 13 11 10 10 10 9 10 9 8 8 8 9 9 9 9 8 8 7 7 6 6 6 4 3 1 1 1 3 -2 -1 1 0 -1 -1 -2
11 9 8 9 7 7 7 7 11 12 12 11 10 10 9 7 9 8 5 4 6 8 7 8 8 8 7 7 7 5 3 -0 2 -1 0 1 3 1 -1 -1 -4 -3 -2 -2 -2
10 8 7 7 7 6 7 9 12 13 12 9 9 10 10 9 9 8 7 5 4 4 3 7 8 7 7 7 5 4 2 0 6 0 2 4 1 3 2 1 -4 -4 -4 -2 -2
6 5 5 5 6 6 7 11 12 12 10 9 8 8 9 8 8 8 7 5 4 3 6 4 8 7 7 5 5 5 1 2 -2 -2 -0 2 3 3 2 1 -0 -2 -3 -4 -3
7 5 3 4 5 6 7 11 10 9 7 8 10 8 10 8 8 7 7 5 4 4 3 2 4 7 7 6 5 5 3 1 -3 -1 -1 1 1 2 -1 -1 -1 -3 -4 -4 -4
7 6 3 4 5 6 8 9 8 6 6 7 9 8 8 8 8 7 7 5 5 4 3 1 2 5 6 3 3 3 -1 1 -0 -3 -3 -1 2 -5 -5 -4 -5 -5 -6 -6 -5
7 8 3 4 6 5 8 8 6 5 4 5 6 7 7 8 6 5 7 5 5 5 4 3 0 2 3 3 2 4 2 0 -1 -2 -6 -3 1 -2 -5 -6 -8 -7 -7 -7 -6
5 3 2 3 7 7 4 5 4 4 4 5 5 6 7 8 6 6 5 4 5 4 3 3 2 3 4 2 3 3 2 -2 -5 -8 -7 -3 2 -1 -3 -5 -6 -10 -8 -7 -6
4 5 3 3 3 6 5 6 5 3 4 3 4 6 7 7 6 4 4 4 4 4 5 4 -1 4 5 3 -0 -0 -2 0 -2 -3 -7 -3 -1 0 -0 -4 -5 -6 -9 -9 -8
6 6 5 4 4 5 5 6 5 5 3 3 3 5 6 3 4 5 3 3 3 5 2 2 4 0 2 3 2 1 -3 -5 -4 -3 -1 -3 -5 -1 -3 -6 -8 -11 -10 -8 -7
7 6 4 5 5 5 6 6 6 4 3 3 4 5 5 3 5 5 2 2 3 1 0 -0 3 1 1 2 2 2 2 -0 -3 -0 -2 -4 -2 -2 -6 -8 -8 -9 -10 -8 -8
5 5 6 5 5 6 6 7 7 4 3 4 4 3 5 5 3 1 1 1 2 1 -0 -0 1 1 2 0 -2 2 -3 -1 -2 -5 -2 -1 -0 -1 -2 -1 -6 -8 -11 -11 -9
Height
820 819 817 816 814 810 809 808 806 803 801 799 798 796 794 790 789 789 789 790 787 785 782 779 777 777 776 779 780 785 807 816 804 803 796 796 797 800 802 804 806 805 804 799 793
818 817 816 813 810 811 808 806 804 804 802 800 799 796 796 793 790 789 791 789 787 785 782 780 780 780 783 783 786 794 807 801 795 794 795 794 797 801 804 809 808 805 800 795 789
818 817 815 813 810 808 807 806 803 802 802 799 799 796 796 793 793 789 788 787 786 783 782 781 781 782 785 785 788 791 797 793 789 791 792 793 799 804 808 811 809 805 794 790 786
818 817 814 812 810 808 806 804 802 801 800 800 799 796 795 793 795 789 788 785 784 783 781 781 782 785 791 790 788 788 787 788 787 788 791 794 801 808 809 809 805 801 794 787 783
818 816 814 812 810 808 805 804 801 800 797 799 798 797 795 793 792 790 787 784 784 784 783 783 786 788 788 790 790 790 787 787 786 788 790 795 801 802 805 803 800 796 793 787 781
817 815 813 811 809 807 804 801 800 798 798 796 798 796 796 796 790 790 787 784 784 784 785 785 787 788 788 788 791 788 788 789 788 787 790 795 804 802 801 800 797 793 790 784 780
816 814 812 810 806 803 802 800 798 797 795 796 796 797 795 793 789 789 787 785 784 786 786 787 786 789 790 788 788 788 791 791 789 790 793 799 806 804 801 800 796 792 787 781 776
816 814 812 809 806 803 799 798 797 796 794 793 795 795 793 790 790 789 787 787 785 785 786 787 787 789 790 791 794 796 805 804 793 791 793 793 798 802 799 799 797 789 782 776 771
814 813 812 810 807 804 798 796 796 795 794 791 795 794 793 790 791 791 788 787 785 785 786 787 788 795 795 802 803 813 809 808 803 789 791 797 798 802 799 800 798 789 782 776 769
812 812 811 809 805 803 798 794 794 794 794 793 792 797 792 792 792 791 789 788 787 785 786 790 798 802 810 813 816 803 809 809 810 797 793 798 801 799 798 801 801 790 782 777 768
809 809 808 807 804 801 798 795 796 796 795 788 787 788 789 791 792 791 790 789 788 786 789 796 801 812 806 808 807 807 809 811 807 799 798 802 806 794 798 801 799 790 785 776 767
804 805 807 805 802 800 800 799 802 805 797 787 788 790 790 792 791 791 792 792 787 786 792 797 799 800 803 804 807 810 807 803 804 799 799 802 805 808 800 803 801 794 787 778 766
801 801 803 803 801 799 799 799 800 802 803 790 789 790 792 793 793 794 795 794 787 788 794 796 797 799 798 802 808 806 804 808 809 805 796 802 811 822 805 800 790 789 787 779 769
794 796 799 800 803 798 799 798 800 801 800 789 792 793 793 792 794 796 795 798 792 794 796 797 801 801 801 801 809 805 802 805 808 812 827 803 828 822 810 803 789 790 786 780 771
787 792 793 797 797 797 799 800 799 802 789 794 794 793 793 797 800 797 797 794 795 796 795 797 801 802 800 800 804 802 806 805 801 810 813 814 828 822 817 810 802 798 791 784 773
781 785 790 795 796 795 797 799 801 799 785 789 793 793 793 798 796 797 798 798 800 798 795 802 802 803 804 803 802 806 804 807 813 824 849 840 839 822 841 829 810 804 797 788 777
781 781 788 793 795 795 797 800 799 791 787 789 793 794 798 805 799 799 810 814 811 804 814 804 803 804 805 805 802 811 823 862 846 873 860 837 823 826 829 823 829 816 804 794 781
779 784 788 793 795 796 798 799 793 781 782 799 797 794 795 799 800 800 804 814 819 819 830 807 804 810 808 811 819 818 832 857 823 868 848 816 844 818 815 815 822 820 812 799 784
781 787 790 793 797 797 800 793 781 780 788 796 800 800 796 800 804 802 807 814 818 822 813 824 805 809 811 816 818 817 843 838 871 876 862 836 819 816 815 813 812 812 807 802 789
783 790 794 793 798 800 801 783 785 790 796 797 789 800 793 799 802 806 805 816 816 817 821 830 829 814 813 814 819 821 830 853 872 879 879 847 844 828 834 821 815 815 813 806 798
786 790 795 797 800 799 796 786 790 799 797 797 792 796 799 800 802 804 803 816 815 819 821 833 834 825 818 832 831 834 853 846 854 877 896 880 836 847 849 837 831 827 821 813 802
785 788 797 798 802 800 792 789 796 802 803 803 802 799 801 797 806 813 803 811 815 817 822 825 840 841 834 832 834 832 836 849 867 876 902 887 844 832 839 838 838 832 825 816 808
785 794 799 799 792 793 802 798 800 803 801 802 800 800 798 798 807 805 813 816 816 818 823 823 835 839 831 843 834 831 836 857 874 894 910 885 837 827 833 833 830 839 828 817 811
784 790 802 802 799 791 795 794 796 804 800 802 802 800 800 801 804 813 817 818 818 817 814 820 842 823 822 830 846 849 856 846 857 878 901 872 843 826 826 834 830 828 831 822 813
778 778 782 794 793 792 791 786 791 796 802 803 806 798 798 816 814 810 818 822 820 815 824 826 823 839 829 827 833 836 858 868 869 861 858 862 865 831 834 838 838 836 831 825 816
773 778 783 782 780 784 785 781 781 792 796 799 796 795 799 809 803 804 818 820 814 825 831 832 825 835 839 829 833 830 830 843 857 846 852 860 844 830 837 838 837 836 832 828 820
771 773 774 777 780 778 772 767 769 781 791 789 792 797 798 799 807 813 814 815 816 823 832 834 833 838 831 840 853 833 846 840 844 854 842 841 829 826 830 825 833 833 836 833 824
Wind_Speed
12 13 14 14 15 13 12 12 11 8 8 7 9 9 11 9 2 5 5 9 8 11 14 15 8 12 5 4 5 3 4 2 6 5 3 2 1 2 2 2 3 2 4 16 32
10 11 12 13 13 14 13 12 12 11 10 8 9 9 11 9 3 2 7 10 7 10 12 9 6 8 3 2 3 4 3 7 6 5 3 2 4 2 2 4 3 7 13 22 24
10 11 12 14 14 14 13 14 13 12 11 9 9 9 10 7 2 1 10 9 7 8 7 3 2 1 4 3 3 2 3 4 4 5 5 2 4 3 2 3 6 14 20 17 22
10 11 12 12 14 16 15 14 13 12 9 10 9 9 10 0 3 2 10 7 4 6 7 6 5 3 3 1 2 1 2 3 2 2 3 3 7 4 3 5 8 11 15 16 18
11 11 12 13 13 15 16 16 13 12 7 8 8 8 3 1 4 6 11 5 2 4 10 3 5 1 3 1 3 2 2 3 4 4 3 7 3 4 4 7 7 11 13 16 17
11 12 12 12 14 14 15 14 13 10 7 6 7 6 2 2 1 12 8 2 4 6 5 5 3 1 1 1 1 2 2 5 4 3 5 4 1 3 3 8 10 14 15 15 16
12 12 12 12 12 13 14 14 11 8 7 5 4 3 2 5 2 11 7 0 3 2 2 2 2 3 1 2 3 2 5 4 3 3 3 6 2 3 4 7 13 15 14 17 17
13 13 12 12 13 13 13 12 9 7 5 1 2 0 4 2 4 7 9 1 1 3 2 2 2 1 2 3 5 3 4 4 3 3 4 3 5 4 4 9 16 19 17 18 21
15 14 13 13 14 13 13 12 9 6 4 2 1 1 5 1 3 5 9 4 8 0 2 1 3 3 5 3 3 5 2 1 6 1 0 4 3 5 4 7 14 17 18 19 20
16 15 14 14 15 15 15 13 6 7 3 3 1 2 1 1 4 7 8 5 2 3 3 4 4 3 4 4 2 4 3 3 4 3 2 2 4 4 3 6 10 16 19 19 21
17 16 14 13 13 14 14 6 4 3 1 5 1 2 2 3 1 5 7 5 3 4 2 3 4 0 3 2 3 4 3 4 4 4 5 3 4 3 4 7 10 17 19 21 23
19 17 15 12 11 11 9 4 3 2 7 3 1 1 2 2 2 3 8 3 2 3 3 3 1 2 3 3 3 5 4 3 4 3 3 4 5 4 5 7 5 14 18 20 23
22 18 15 12 10 7 3 4 4 2 3 3 0 0 1 1 1 4 6 3 1 3 1 4 1 2 2 2 4 3 3 3 3 6 2 2 5 5 6 5 15 17 18 20 23
25 20 16 10 6 3 1 5 4 2 2 1 1 2 2 1 1 2 4 2 2 3 4 1 1 1 1 1 1 3 2 2 5 1 1 4 4 3 8 15 21 22 22 22 24
28 24 15 11 3 4 2 5 4 1 5 3 1 0 4 3 2 1 4 3 2 3 4 1 1 2 2 1 1 5 6 3 2 2 2 5 2 4 5 15 23 21 23 22 23
28 27 14 8 7 4 8 7 2 3 5 1 0 1 2 3 1 1 2 5 1 2 4 2 1 2 2 4 1 5 1 5 4 2 3 5 3 3 3 8 17 17 22 23 23
27 16 11 7 3 12 11 3 2 3 3 1 0 1 4 2 2 3 4 5 1 3 1 1 1 2 2 4 2 6 5 3 5 4 4 4 1 6 5 6 5 13 18 21 21
17 17 7 4 8 14 8 2 4 2 4 2 3 2 2 1 0 1 2 1 2 1 3 3 2 5 6 3 2 4 3 4 4 2 5 5 3 5 4 7 5 6 9 16 21
18 8 6 7 13 13 0 3 5 5 4 4 0 1 1 1 1 1 1 3 1 2 4 3 1 1 3 4 2 1 4 3 6 1 3 4 5 3 6 10 13 13 16 18 20
8 5 3 10 12 3 1 5 4 1 5 3 5 4 3 3 2 2 1 1 2 1 2 2 3 2 1 0 6 4 4 3 3 3 4 4 5 4 9 14 16 17 17 18 18
6 2 3 8 6 2 3 4 2 1 2 5 4 3 4 3 3 3 2 1 1 2 3 3 2 3 2 4 1 3 3 4 4 3 4 2 5 5 5 8 11 12 12 15 17
5 2 3 10 1 2 3 2 3 2 1 2 2 3 5 4 3 2 4 1 3 3 3 1 4 2 2 2 2 1 2 2 4 5 1 3 5 1 5 5 5 9 9 13 13
3 3 1 3 4 3 2 1 1 4 4 4 4 3 1 5 1 2 3 1 3 2 4 4 1 2 4 4 4 2 3 4 5 3 3 4 5 3 3 7 6 5 9 13 13
3 3 0 1 1 1 4 4 4 1 2 2 2 2 2 3 1 4 2 1 1 2 5 2 2 4 5 5 3 2 0 3 4 3 3 5 7 5 7 7 9 9 6 11 10
2 2 4 4 4 4 4 4 5 5 2 4 1 6 5 2 2 4 3 2 2 2 2 2 2 2 1 0 2 3 4 5 5 4 5 4 5 9 9 6 5 7 7 8 12
2 2 1 2 1 14 8 7 9 4 8 5 5 9 6 5 5 6 6 4 4 2 2 2 2 2 3 2 1 4 5 6 2 2 8 2 8 6 5 3 5 6 8 7 11
4 2 2 2 2 5 5 7 10 11 5 1 8 6 7 3 3 2 5 5 4 5 3 2 4 2 3 3 4 5 7 9 3 3 6 4 7 3 3 6 4 5 4 7 9
Wind_Direction
349 349 349 348 347 349 345 340 329 323 324 334 339 337 341 349 18 3 26 338 323 333 336 344 32 9 27 45 42 86 66 150 194 167 219 189 192 138 61 83 346 251 258 292 304
338 339 339 343 347 342 339 337 335 325 321 324 326 332 332 345 352 43 351 335 332 335 341 358 352 360 36 38 27 79 106 196 194 171 209 203 173 139 24 2 283 274 286 300 310
334 334 335 340 340 341 333 329 331 325 318 312 307 321 320 330 306 221 349 344 340 339 348 346 348 97 59 21 8 149 152 201 230 191 190 191 143 92 71 335 263 295 301 306 314
331 329 332 335 336 337 334 330 323 322 314 316 308 317 322 19 298 354 345 340 3 18 23 32 31 61 76 13 327 100 174 170 239 220 178 190 123 106 147 237 272 280 290 310 319
324 323 326 330 332 334 333 330 325 319 303 315 318 320 328 327 260 333 342 347 62 12 39 60 51 72 106 316 328 184 219 219 238 243 155 115 102 167 224 295 306 318 316 313 318
320 320 321 328 330 331 333 334 328 327 303 305 315 325 305 283 136 341 337 43 55 39 35 53 95 112 108 266 171 282 251 290 317 242 161 125 53 185 274 328 330 333 322 321 324
313 311 314 317 325 330 332 329 325 321 296 289 313 316 275 251 189 8 355 45 62 12 48 46 59 59 62 309 355 286 315 352 1 147 143 120 241 232 280 324 334 323 324 329 327
304 307 310 317 326 331 335 326 307 312 309 254 312 252 259 237 283 321 5 238 298 300 238 304 31 93 27 323 24 51 43 356 295 157 172 128 271 261 304 352 337 333 332 334 328
295 299 307 312 320 325 328 316 294 291 265 231 243 175 280 241 299 333 355 343 325 210 259 320 56 69 26 38 10 10 252 328 320 66 160 194 275 267 308 345 331 333 337 332 327
286 291 300 308 318 320 319 314 289 289 230 228 196 294 3 304 344 343 346 335 334 319 92 59 48 60 37 51 250 289 311 239 245 287 327 261 277 286 312 323 311 335 337 332 328
277 282 290 302 319 326 328 329 358 276 299 230 159 275 79 325 230 21 349 337 242 65 146 34 55 70 258 223 267 242 242 233 254 278 338 209 235 239 352 321 326 341 339 333 328
266 270 279 292 304 318 315 65 82 240 297 255 180 13 22 10 316 24 356 226 198 143 100 46 224 200 233 211 286 247 232 274 293 269 316 205 254 292 353 302 321 344 338 333 331
257 260 267 277 296 301 36 128 122 80 269 326 101 33 52 12 72 329 6 303 119 122 145 172 152 312 192 180 337 247 222 145 238 316 255 100 312 338 314 292 347 352 342 340 338
246 247 254 264 279 184 290 142 137 140 310 212 27 35 48 89 51 10 17 290 16 146 134 142 26 5 229 232 132 293 195 341 277 172 230 21 287 305 323 339 350 350 344 343 336
238 238 231 231 203 167 150 155 137 111 315 47 321 41 61 41 312 58 35 304 125 138 118 127 18 355 326 279 175 255 313 240 176 146 32 339 57 262 4 351 333 342 340 339 335
231 226 215 215 209 186 149 140 121 39 255 244 128 23 61 15 15 312 22 43 0 82 49 125 124 76 286 305 250 318 18 41 55 66 30 257 116 308 346 294 322 342 339 336 335
222 208 197 199 186 158 145 144 35 188 66 243 358 356 107 261 266 33 28 24 130 91 220 338 43 326 43 332 42 26 45 347 358 7 211 290 68 247 261 286 267 320 329 332 333
206 197 186 191 152 152 144 71 211 236 223 36 22 331 217 60 71 6 111 96 40 105 106 161 312 12 346 67 266 27 116 135 243 307 285 308 269 291 242 296 282 290 307 338 337
183 132 112 139 158 158 109 199 215 202 125 136 78 231 258 153 185 314 41 165 165 133 158 115 76 57 76 36 42 319 44 177 101 172 37 287 293 330 328 333 344 344 348 351 338
148 110 71 152 171 84 38 235 230 86 115 112 197 178 250 183 183 29 178 121 133 79 123 198 71 23 70 343 45 87 152 43 9 39 330 311 287 252 337 325 332 344 345 343 339
138 126 114 157 141 93 226 227 179 89 90 179 204 188 236 204 201 206 192 140 155 127 97 135 95 279 14 18 10 349 20 54 106 104 152 304 274 209 245 287 309 322 330 336 334
141 183 155 150 149 205 218 216 80 177 74 173 198 218 195 200 205 230 191 105 150 147 147 168 132 112 202 302 283 238 124 122 115 279 80 141 277 256 236 287 301 312 324 330 333
117 109 66 62 217 189 301 192 222 165 207 182 209 223 140 201 205 155 119 103 138 128 173 181 42 42 347 358 352 231 134 121 109 85 210 127 272 236 294 321 318 306 336 326 343
134 124 59 197 225 327 170 219 216 239 197 153 170 236 152 182 50 177 145 152 141 142 122 102 112 165 190 204 132 148 243 141 118 107 187 229 295 284 304 318 331 334 352 321 337
161 205 168 182 237 205 196 169 160 204 236 167 206 210 161 154 62 193 132 140 34 178 75 138 151 149 297 234 171 200 163 181 158 179 162 245 226 286 292 276 290 295 330 336 352
171 159 149 181 155 187 194 206 186 163 163 215 222 184 195 164 187 207 134 200 190 78 95 330 129 116 336 105 359 268 212 189 147 188 260 221 283 217 265 274 331 316 341 344 342
148 136 126 126 194 176 201 197 205 140 210 164 191 144 184 135 89 54 83 72 111 141 140 140 136 112 273 2 335 313 217 182 179 217 159 180 229 201 289 296 287 316 331 318 330